GW2569 Weather Reports


time (UTC)temp
F
wind
direction
speed
knots
gust
knots
rain 1hr
in
rain 24hr
in
rain mn
in
humidity
%
barometer
mb
20260507045040 88 0 0.0 3.5 0.00 0.00 0.00 78 1009.4
20260507044547 88 0 0.9 3.5 0.00 0.00 0.00 78 1009.3
20260507044040 88 103 0.0 5.2 0.00 0.00 0.00 77 1009.2
20260507043540 88 104 0.9 5.2 0.00 0.00 0.00 77 1009.2
20260507043051 89 103 0.9 5.2 0.00 0.00 0.00 77 1009.2
20260507042539 89 180 1.7 6.1 0.00 0.00 0.00 77 1009.2
20260507042040 89 95 0.9 7.0 0.00 0.00 0.00 77 1009.1
20260507041548 89 119 1.7 7.0 0.00 0.00 0.00 77 1009.1
20260507041042 89 103 1.7 7.0 0.00 0.00 0.00 77 1009.1
20260507040540 89 119 1.7 6.1 0.00 0.00 0.00 76 1009.0
20260507040104 89 104 1.7 6.1 0.00 0.00 0.00 76 1008.9
20260507035540 89 110 1.7 6.1 0.00 0.00 0.00 76 1009.0
20260507035038 89 113 2.6 6.1 0.00 0.00 0.00 76 1008.9
20260507034605 90 94 2.6 7.0 0.00 0.00 0.00 75 1008.9
20260507034040 90 85 2.6 7.0 0.00 0.00 0.00 75 1008.9
20260507033540 90 90 2.6 6.1 0.00 0.00 0.00 75 1008.9
20260507033103 90 80 2.6 6.1 0.00 0.00 0.00 74 1008.9
20260507032544 90 88 1.7 6.1 0.00 0.00 0.00 74 1008.9
20260507032040 90 128 1.7 6.1 0.00 0.00 0.00 74 1008.8
20260507031551 90 136 2.6 6.1 0.00 0.00 0.00 74 1008.9
20260507031040 90 103 3.5 7.0 0.00 0.00 0.00 74 1008.9
20260507030543 90 119 2.6 7.8 0.00 0.00 0.00 74 1008.8
20260507030050 90 111 3.5 7.8 0.00 0.00 0.00 74 1008.7
20260507025538 90 99 3.5 7.8 0.00 0.00 0.00 74 1008.8
20260507025040 90 128 3.5 7.8 0.00 0.00 0.00 74 1008.6
20260507024555 91 122 3.5 7.8 0.00 0.00 0.00 74 1008.6
20260507024041 91 121 3.5 7.8 0.00 0.00 0.00 74 1008.6
20260507023542 91 117 3.5 7.8 0.00 0.00 0.00 74 1008.5
20260507023049 91 123 2.6 6.1 0.00 0.00 0.00 74 1008.5
20260507022540 91 74 2.6 6.1 0.00 0.00 0.00 74 1008.5
20260507022040 91 109 1.7 7.0 0.00 0.00 0.00 74 1008.3
20260507021550 91 114 2.6 7.0 0.00 0.00 0.00 74 1008.3
20260507021044 91 112 2.6 6.1 0.00 0.00 0.00 74 1008.3
20260507020538 92 101 1.7 6.1 0.00 0.00 0.00 74 1008.2
20260507020048 92 101 2.6 6.1 0.00 0.00 0.00 73 1008.2
20260507015538 92 107 0.9 7.0 0.00 0.00 0.00 73 1008.2
20260507015039 92 112 2.6 7.0 0.00 0.00 0.00 73 1008.2
20260507014552 92 71 2.6 7.8 0.00 0.00 0.00 73 1008.0
20260507014040 92 139 2.6 7.8 0.00 0.00 0.00 72 1007.9
20260507013538 93 110 3.5 7.0 0.00 0.00 0.00 72 1007.9
20260507013103 93 80 2.6 7.0 0.00 0.00 0.00 71 1007.8
20260507012539 93 117 2.6 7.0 0.00 0.00 0.00 71 1007.8
20260507012040 93 101 3.5 7.0 0.00 0.00 0.00 70 1007.8
20260507011548 93 74 3.5 7.0 0.00 0.00 0.00 70 1007.7
20260507011042 94 92 2.6 7.0 0.00 0.00 0.00 70 1007.7
20260507010540 94 83 2.6 7.0 0.00 0.00 0.00 69 1007.6
20260507010053 94 115 2.6 7.8 0.00 0.00 0.00 69 1007.5
20260507005538 94 117 2.6 7.8 0.00 0.00 0.00 69 1007.4
20260507005040 94 119 4.3 7.8 0.00 0.00 0.00 69 1007.4
20260507004547 94 103 2.6 7.0 0.00 0.00 0.00 69 1007.3
20260507004040 94 105 1.7 7.0 0.00 0.00 0.00 69 1007.4
20260507003541 95 94 2.6 7.0 0.00 0.00 0.00 69 1007.3
20260507003051 95 95 3.5 6.1 0.00 0.00 0.00 69 1007.3
20260507002540 95 76 1.7 6.1 0.00 0.00 0.00 70 1007.2
20260507002040 95 128 1.7 6.1 0.00 0.00 0.00 69 1007.2
20260507001608 96 107 2.6 7.0 0.00 0.00 0.00 69 1007.1
20260507001039 96 136 2.6 7.8 0.00 0.00 0.00 69 1007.2
20260507000539 96 103 3.5 7.8 0.00 0.00 0.00 69 1007.2
20260507000056 96 74 4.3 8.7 0.00 0.00 0.00 69 1007.1
20260506235539 96 107 3.5 8.7 0.00 0.00 0.00 70 1007.1
20260506235040 97 112 3.5 8.7 0.00 0.00 0.00 70 1007.1
20260506234600 97 100 3.5 8.7 0.00 0.00 0.00 71 1007.2
20260506234038 97 71 4.3 9.6 0.00 0.00 0.00 71 1007.2
20260506233538 97 90 4.3 9.6 0.00 0.00 0.00 71 1007.2
20260506233047 97 83 5.2 9.6 0.00 0.00 0.00 71 1007.2
20260506232539 97 142 5.2 10.4 0.00 0.00 0.00 71 1007.2
20260506232040 97 84 6.1 10.4 0.00 0.00 0.00 70 1007.1
20260506231554 98 85 3.5 9.6 0.00 0.00 0.00 70 1007.2
20260506231040 98 105 4.3 10.4 0.00 0.00 0.00 70 1007.1
20260506230539 98 105 5.2 10.4 0.00 0.00 0.00 70 1007.1
20260506230054 98 102 6.1 9.6 0.00 0.00 0.00 70 1007.0
20260506225543 98 70 4.3 9.6 0.00 0.00 0.00 69 1007.1
20260506225040 98 74 5.2 9.6 0.00 0.00 0.00 69 1007.0
20260506224604 99 159 3.5 8.7 0.00 0.00 0.00 69 1007.0
20260506224038 99 94 4.3 10.4 0.00 0.00 0.00 69 1007.0
20260506223536 99 34 4.3 10.4 0.00 0.00 0.00 69 1006.9
20260506223059 99 114 6.1 10.4 0.00 0.00 0.00 69 1007.0
20260506222541 99 96 5.2 10.4 0.00 0.00 0.00 69 1006.9
20260506222040 99 94 5.2 10.4 0.00 0.00 0.00 69 1007.0
20260506221552 99 112 3.5 10.4 0.00 0.00 0.00 70 1007.0
20260506221039 99 69 4.3 10.4 0.00 0.00 0.00 70 1007.0
20260506220540 99 63 3.5 10.4 0.00 0.00 0.00 70 1007.1
20260506220104 99 84 5.2 12.2 0.00 0.00 0.00 70 1007.1
20260506215541 99 102 5.2 12.2 0.00 0.00 0.00 69 1007.1
20260506215041 99 58 4.3 8.7 0.00 0.00 0.00 70 1007.1
20260506214549 99 117 5.2 12.2 0.00 0.00 0.00 70 1007.2
20260506214039 99 76 5.2 12.2 0.00 0.00 0.00 70 1007.2
20260506213539 99 102 5.2 10.4 0.00 0.00 0.00 70 1007.3
20260506213049 99 61 5.2 10.4 0.00 0.00 0.00 70 1007.3
20260506212540 99 104 3.5 9.6 0.00 0.00 0.00 70 1007.2
20260506212040 99 97 4.3 11.3 0.00 0.00 0.00 70 1007.3
20260506211552 99 86 4.3 11.3 0.00 0.00 0.00 70 1007.4
20260506211040 100 70 5.2 8.7 0.00 0.00 0.00 70 1007.3
20260506210540 100 136 2.6 8.7 0.00 0.00 0.00 70 1007.4
20260506210050 100 88 1.7 10.4 0.00 0.00 0.00 69 1007.5
20260506205539 99 98 3.5 10.4 0.00 0.00 0.00 68 1007.5
20260506205040 99 113 4.3 10.4 0.00 0.00 0.00 68 1007.5
20260506204546 99 118 3.5 9.6 0.00 0.00 0.00 68 1007.6
20260506204039 99 74 3.5 11.3 0.00 0.00 0.00 67 1007.7
20260506203540 99 101 6.1 11.3 0.00 0.00 0.00 68 1007.8
20260506203049 99 73 5.2 11.3 0.00 0.00 0.00 70 1007.8
20260506202543 99 98 4.3 9.6 0.00 0.00 0.00 70 1007.9
20260506202040 99 68 3.5 10.4 0.00 0.00 0.00 70 1008.0
20260506201546 99 215 3.5 11.3 0.00 0.00 0.00 69 1008.1
20260506201040 99 55 3.5 11.3 0.00 0.00 0.00 70 1008.1
20260506200538 99 56 5.2 11.3 0.00 0.00 0.00 70 1008.2
20260506200045 98 65 3.5 10.4 0.00 0.00 0.00 71 1008.3
20260506195540 99 41 6.1 10.4 0.00 0.00 0.00 70 1008.5
20260506195041 99 74 4.3 9.6 0.00 0.00 0.00 68 1008.5
20260506194554 98 101 5.2 9.6 0.00 0.00 0.00 69 1008.6
20260506194040 98 112 5.2 9.6 0.00 0.00 0.00 69 1008.6
20260506193538 98 123 3.5 9.6 0.00 0.00 0.00 69 1008.8
20260506193052 98 95 4.3 9.6 0.00 0.00 0.00 70 1008.9
20260506192539 98 156 4.3 9.6 0.00 0.00 0.00 71 1009.0
20260506192040 98 107 3.5 11.3 0.00 0.00 0.00 71 1009.2
20260506191547 98 130 4.3 11.3 0.00 0.00 0.00 71 1009.3
20260506191037 97 103 4.3 10.4 0.00 0.00 0.00 73 1009.4
20260506190542 97 101 4.3 10.4 0.00 0.00 0.00 73 1009.4
20260506190052 97 60 4.3 10.4 0.00 0.00 0.00 74 1009.5
20260506185540 98 81 4.3 8.7 0.00 0.00 0.00 73 1009.6
20260506185040 97 110 3.5 9.6 0.00 0.00 0.00 74 1009.7
20260506184550 97 110 4.3 9.6 0.00 0.00 0.00 74 1009.8
20260506184040 97 341 5.2 9.6 0.00 0.00 0.00 74 1009.8
20260506183543 97 82 3.5 9.6 0.00 0.00 0.00 74 1009.8
20260506183101 97 107 4.3 9.6 0.00 0.00 0.00 74 1010.0
20260506182537 97 94 4.3 9.6 0.00 0.00 0.00 74 1010.0
20260506182037 96 63 3.5 9.6 0.00 0.00 0.00 74 1010.0
20260506181608 96 49 2.6 8.7 0.00 0.00 0.00 74 1010.1
20260506181038 96 148 5.2 10.4 0.00 0.00 0.00 75 1010.1
20260506180541 95 310 4.3 10.4 0.00 0.00 0.00 75 1010.2
20260506180054 95 121 2.6 9.6 0.00 0.00 0.00 76 1010.2
20260506175540 96 95 5.2 8.7 0.00 0.00 0.00 75 1010.4
20260506175039 95 51 2.6 8.7 0.00 0.00 0.00 76 1010.5
20260506174548 95 89 2.6 7.8 0.00 0.00 0.00 76 1010.6
20260506174039 95 148 3.5 7.8 0.00 0.00 0.00 75 1010.7
20260506173542 94 112 1.7 8.7 0.00 0.00 0.00 76 1010.7
20260506173116 94 13 3.5 8.7 0.00 0.00 0.00 76 1010.8
20260506172540 94 55 2.6 8.7 0.00 0.00 0.00 77 1010.9
20260506172041 94 69 3.5 7.8 0.00 0.00 0.00 77 1010.9
20260506171553 94 169 1.7 7.8 0.00 0.00 0.00 77 1011.0
20260506171040 94 70 3.5 7.8 0.00 0.00 0.00 76 1011.1
20260506170539 94 0 3.5 8.7 0.00 0.00 0.00 75 1011.2
20260506170057 93 88 0.9 8.7 0.00 0.00 0.00 74 1011.2
20260506165537 93 105 4.3 8.7 0.00 0.00 0.00 76 1011.2
20260506165040 92 187 3.5 7.0 0.00 0.00 0.00 76 1011.3
20260506164550 93 0 2.6 7.0 0.00 0.00 0.00 75 1011.2
20260506164039 92 80 1.7 6.1 0.00 0.00 0.00 77 1011.2
20260506163539 92 74 2.6 6.1 0.00 0.00 0.00 75 1011.3
20260506163048 92 117 3.5 7.0 0.00 0.00 0.00 76 1011.3
20260506162537 92 107 1.7 7.0 0.00 0.00 0.00 77 1011.4
20260506162042 91 109 2.6 7.0 0.00 0.00 0.00 78 1011.3
20260506161546 91 85 2.6 6.1 0.00 0.00 0.00 78 1011.3
20260506161040 90 124 2.6 7.0 0.00 0.00 0.00 78 1011.4
20260506160536 90 160 3.5 7.0 0.00 0.00 0.00 78 1011.4
20260506155540 90 122 2.6 7.8 0.00 0.00 0.00 79 1011.5
20260506155040 89 90 4.3 7.8 0.00 0.00 0.00 79 1011.5
20260506154549 89 59 1.7 7.0 0.00 0.00 0.00 79 1011.5
20260506154043 89 105 3.5 7.0 0.00 0.00 0.00 80 1011.7
20260506153540 89 74 2.6 7.0 0.00 0.00 0.00 80 1011.7
20260506153053 89 59 2.6 6.1 0.00 0.00 0.00 81 1011.8
20260506152539 88 15 1.7 7.8 0.00 0.00 0.00 82 1011.7
20260506152039 88 115 1.7 7.8 0.00 0.00 0.00 82 1011.7
20260506151550 87 142 2.6 7.8 0.00 0.00 0.00 83 1011.7
20260506151040 87 121 3.5 7.8 0.00 0.00 0.00 83 1011.7
20260506150542 87 115 4.3 7.8 0.00 0.00 0.00 83 1011.7
20260506150051 87 86 3.5 7.0 0.00 0.00 0.00 83 1011.6
20260506145538 87 74 3.5 7.0 0.00 0.00 0.00 83 1011.5
20260506145038 87 111 2.6 7.8 0.00 0.00 0.00 83 1011.5
20260506144550 86 149 1.7 8.7 0.00 0.00 0.00 84 1011.6
20260506144040 85 135 3.5 8.7 0.00 0.00 0.00 84 1011.7
20260506143540 85 121 5.2 8.7 0.00 0.00 0.00 84 1011.8
20260506143048 85 82 3.5 7.8 0.00 0.00 0.00 85 1011.6
20260506142536 84 144 3.5 7.8 0.00 0.00 0.00 85 1011.7
20260506142042 84 63 4.3 7.8 0.00 0.00 0.00 85 1011.7
20260506141555 84 100 3.5 7.0 0.00 0.00 0.00 86 1011.7
20260506141042 84 117 3.5 7.0 0.00 0.00 0.00 86 1011.7
20260506140542 84 152 1.7 8.7 0.00 0.00 0.00 86 1011.7
20260506140051 83 84 3.5 8.7 0.00 0.00 0.00 87 1011.8
20260506135537 83 120 2.6 7.8 0.00 0.00 0.00 87 1011.7
20260506135037 83 101 2.6 10.4 0.00 0.00 0.00 87 1011.7
20260506134548 82 146 3.5 10.4 0.00 0.00 0.00 87 1011.6
20260506134037 82 142 5.2 10.4 0.00 0.00 0.00 87 1011.6
20260506133538 82 132 2.6 7.8 0.00 0.00 0.00 88 1011.6
20260506133048 82 95 3.5 8.7 0.00 0.00 0.00 88 1011.6
20260506132537 82 69 2.6 8.7 0.00 0.00 0.00 89 1011.6
20260506132042 82 61 2.6 7.8 0.00 0.00 0.00 89 1011.7
20260506131558 81 110 3.5 7.8 0.00 0.00 0.00 89 1011.6
20260506131041 81 84 2.6 7.8 0.00 0.00 0.00 90 1011.7
20260506130540 81 120 4.3 7.8 0.00 0.00 0.00 90 1011.5
20260506130053 80 94 2.6 7.0 0.00 0.00 0.00 90 1011.6
20260506125539 80 98 3.5 7.0 0.00 0.00 0.00 90 1011.6
20260506125039 80 132 2.6 7.0 0.00 0.00 0.00 90 1011.5
20260506124555 80 137 2.6 7.0 0.00 0.00 0.00 90 1011.5
20260506124039 80 114 0.9 6.1 0.00 0.00 0.00 90 1011.5
20260506123539 80 79 2.6 6.1 0.00 0.00 0.00 90 1011.4
20260506123052 80 138 1.7 6.1 0.00 0.00 0.00 90 1011.4
20260506122539 80 72 2.6 6.1 0.00 0.00 0.00 90 1011.4
20260506122037 80 104 1.7 5.2 0.00 0.00 0.00 91 1011.4
20260506121547 80 71 1.7 5.2 0.00 0.00 0.00 91 1011.3
20260506121039 80 119 1.7 3.5 0.00 0.00 0.00 91 1011.2
20260506120541 80 115 0.9 3.5 0.00 0.00 0.00 91 1011.2
20260506120053 80 134 1.7 5.2 0.00 0.00 0.00 90 1011.0
20260506115540 80 101 0.9 5.2 0.00 0.00 0.00 90 1011.1
20260506115036 80 76 1.7 5.2 0.00 0.00 0.00 90 1011.0
20260506114549 80 91 0.9 5.2 0.00 0.00 0.00 90 1011.1
20260506114040 80 151 1.7 5.2 0.00 0.00 0.00 90 1010.9
20260506113540 80 100 0.9 3.5 0.00 0.00 0.00 90 1011.0
20260506113050 80 110 0.9 5.2 0.00 0.00 0.00 90 1011.0
20260506112543 80 113 1.7 6.1 0.00 0.00 0.00 90 1010.9
20260506112039 80 111 1.7 6.1 0.00 0.00 0.00 90 1010.9
20260506111552 80 107 2.6 7.0 0.00 0.00 0.00 90 1010.9
20260506111039 80 98 2.6 7.0 0.00 0.00 0.00 89 1010.8
20260506110540 80 104 2.6 7.8 0.00 0.00 0.00 89 1010.8
20260506110050 81 96 1.7 7.8 0.00 0.00 0.00 89 1010.8
20260506105540 81 90 3.5 7.8 0.00 0.00 0.00 89 1010.7
20260506105042 81 117 2.6 7.0 0.00 0.00 0.00 89 1010.7
20260506104549 81 111 2.6 6.1 0.00 0.00 0.00 89 1010.6
20260506104040 81 123 2.6 6.1 0.00 0.00 0.00 89 1010.6
20260506103539 81 0 0.9 4.3 0.00 0.00 0.00 89 1010.5
20260506103050 81 96 0.9 3.5 0.00 0.00 0.00 88 1010.5
20260506102539 81 91 0.9 3.5 0.00 0.00 0.00 88 1010.5
20260506102039 81 194 0.0 6.1 0.00 0.00 0.00 88 1010.4
20260506101548 81 155 1.7 6.1 0.00 0.00 0.00 88 1010.5
20260506101039 81 89 2.6 7.0 0.00 0.00 0.00 88 1010.3
20260506100539 81 109 2.6 7.0 0.00 0.00 0.00 88 1010.3
20260506100046 81 76 2.6 7.0 0.00 0.00 0.00 88 1010.2
20260506095538 81 85 2.6 7.0 0.00 0.00 0.00 88 1010.1
20260506095042 82 86 1.7 6.1 0.00 0.00 0.00 89 1010.1
20260506094607 82 77 2.6 6.1 0.00 0.00 0.00 89 1010.1
20260506094041 82 133 1.7 6.1 0.00 0.00 0.00 88 1010.0
20260506093541 82 87 1.7 6.1 0.00 0.00 0.00 88 1010.0
20260506093048 82 0 1.7 5.2 0.00 0.00 0.00 89 1010.0
20260506092541 82 61 0.9 7.0 0.00 0.00 0.00 89 1010.0
20260506092041 82 0 0.9 7.0 0.00 0.00 0.00 89 1010.0
20260506091550 82 96 2.6 7.0 0.00 0.00 0.00 89 1009.8
20260506091041 82 84 1.7 4.3 0.00 0.00 0.00 90 1009.9
20260506090539 82 148 0.9 3.5 0.00 0.00 0.00 90 1009.8
20260506090048 82 101 0.0 5.2 0.00 0.00 0.00 91 1009.7
20260506085540 82 107 1.7 6.1 0.00 0.00 0.00 91 1009.7
20260506085043 82 91 3.5 6.1 0.00 0.00 0.00 91 1009.7
20260506084548 82 184 1.7 5.2 0.00 0.00 0.00 91 1009.8
20260506084042 82 132 2.6 7.8 0.00 0.00 0.00 92 1009.8
20260506083545 82 101 2.6 7.8 0.00 0.00 0.00 92 1009.8
20260506083046 83 119 1.7 3.5 0.00 0.00 0.00 92 1009.8
20260506082541 83 0 0.0 5.2 0.00 0.00 0.00 92 1009.8
20260506082041 83 136 1.7 5.2 0.00 0.00 0.00 92 1009.8
20260506081555 83 0 0.9 6.1 0.00 0.00 0.00 93 1009.8
20260506081039 83 126 0.0 7.0 0.00 0.00 0.00 93 1009.7
20260506080541 83 0 1.7 7.0 0.00 0.00 0.00 93 1009.7
20260506073053 83 115 3.5 7.8 0.00 0.00 0.00 93 1009.6
20260506072545 83 104 2.6 7.0 0.00 0.00 0.00 93 1009.7
20260506072043 83 88 2.6 7.0 0.00 0.00 0.00 93 1009.8
20260506071551 84 111 1.7 6.1 0.00 0.00 0.00 93 1009.7
20260506071042 84 93 1.7 8.7 0.00 0.00 0.00 93 1009.7
20260506070541 84 81 0.9 8.7 0.00 0.00 0.00 93 1009.8
20260506062041 84 96 4.3 9.6 0.00 0.00 0.00 91 1010.0
20260506061546 84 142 2.6 7.8 0.00 0.00 0.00 91 1010.1
20260506061039 84 87 2.6 8.7 0.00 0.00 0.00 91 1010.1
20260506060537 84 38 3.5 8.7 0.00 0.00 0.00 91 1010.1
20260506060104 84 38 4.3 8.7 0.00 0.00 0.00 91 1010.1
20260506051039 85 38 4.3 8.7 0.00 0.00 0.00 90 1010.3
20260506050540 85 78 4.3 8.7 0.00 0.00 0.00 90 1010.2